EN

Hourly Weather Dnistryk-Dubovyi

Today, 19 April, Monday

Time Temperature Precipitation Wind Pressure Humidity
00:00 +3°C° 0 mm 0 mps 707 mmHg 90%
01:00 +3°C° 0 mm 0 mps 707 mmHg 91%
02:00 +3°C° 0 mm 0 mps 707 mmHg 92%
03:00 +2°C° 0 mm 0 mps 707 mmHg 92%
04:00 +2°C° 0 mm 0 mps 706 mmHg 92%
05:00 +2°C° 0 mm 0 mps 706 mmHg 92%
06:00 +3°C° 0 mm 0 mps 706 mmHg 87%
07:00 +4°C° 0 mm 0 mps 706 mmHg 83%
08:00 +7°C° 0 mm 1 mps 706 mmHg 79%
09:00 +7°C° 0 mm 1 mps 706 mmHg 76%
10:00 +8°C° 0 mm 1 mps 706 mmHg 73%
11:00 +9°C° 0 mm 1 mps 706 mmHg 70%
12:00 +9°C° 0.2 mm 1 mps 706 mmHg 71%
13:00 +8°C° 0.2 mm 2 mps 706 mmHg 73%
14:00 +8°C° 0.2 mm 2 mps 706 mmHg 75%
15:00 +8°C° 0.2 mm 2 mps 705 mmHg 77%
16:00 +8°C° 0.2 mm 2 mps 705 mmHg 80%
17:00 +9°C° 0.2 mm 1 mps 705 mmHg 83%
18:00 +8°C° 0.2 mm 1 mps 705 mmHg 87%
19:00 +7°C° 0.2 mm 1 mps 705 mmHg 91%
20:00 +6°C° 0.2 mm 1 mps 705 mmHg 95%
21:00 +6°C° 0.1 mm 1 mps 705 mmHg 95%
22:00 +6°C° 0.1 mm 1 mps 705 mmHg 96%
23:00 +5°C° 0.1 mm 1 mps 704 mmHg 97%

Tomorrow, 20 April, Tuesday

Time Temperature Precipitation Wind Pressure Humidity
00:00 +5°C° 0.1 mm 1 mps 704 mmHg 97%
01:00 +5°C° 0.1 mm 1 mps 704 mmHg 97%
02:00 +5°C° 0.1 mm 1 mps 704 mmHg 97%
03:00 +5°C° 0.2 mm 1 mps 704 mmHg 97%
04:00 +5°C° 0.2 mm 1 mps 704 mmHg 97%
05:00 +5°C° 0.2 mm 1 mps 703 mmHg 98%
06:00 +5°C° 0.6 mm 1 mps 704 mmHg 97%
07:00 +5°C° 0.6 mm 1 mps 704 mmHg 96%
08:00 +5°C° 0.6 mm 1 mps 704 mmHg 96%
09:00 +6°C° 0.7 mm 1 mps 704 mmHg 92%
10:00 +6°C° 0.7 mm 1 mps 704 mmHg 89%
11:00 +7°C° 0.7 mm 1 mps 704 mmHg 85%
12:00 +8°C° 0.5 mm 1 mps 704 mmHg 80%
13:00 +9°C° 0.5 mm 1 mps 704 mmHg 75%
14:00 +10°C° 0.5 mm 1 mps 704 mmHg 70%
15:00 +10°C° 0.4 mm 1 mps 704 mmHg 70%
16:00 +10°C° 0.4 mm 1 mps 704 mmHg 70%
17:00 +10°C° 0.4 mm 1 mps 704 mmHg 71%
18:00 +8°C° 0.5 mm 1 mps 704 mmHg 77%
19:00 +7°C° 0.5 mm 1 mps 704 mmHg 84%
20:00 +5°C° 0.5 mm 1 mps 704 mmHg 90%
21:00 +5°C° 0.2 mm 1 mps 704 mmHg 92%
22:00 +5°C° 0.2 mm 1 mps 704 mmHg 93%
23:00 +5°C° 0.2 mm 1 mps 704 mmHg 94%

Day after tomorrow, 21 April, Wednesday

Time Temperature Precipitation Wind Pressure Humidity
00:00 +4°C° 0 mm 1 mps 704 mmHg 94%
01:00 +4°C° 0 mm 1 mps 704 mmHg 94%
02:00 +3°C° 0 mm 1 mps 704 mmHg 95%
03:00 +3°C° 0 mm 1 mps 704 mmHg 95%
04:00 +3°C° 0 mm 1 mps 704 mmHg 95%
05:00 +3°C° 0 mm 1 mps 705 mmHg 95%
06:00 +4°C° 0 mm 1 mps 705 mmHg 92%
07:00 +5°C° 0 mm 1 mps 705 mmHg 90%
08:00 +5°C° 0 mm 2 mps 705 mmHg 87%
09:00 +6°C° 0.1 mm 2 mps 705 mmHg 83%
10:00 +7°C° 0.1 mm 3 mps 705 mmHg 79%
11:00 +8°C° 0.1 mm 3 mps 705 mmHg 74%
12:00 +9°C° 0.1 mm 3 mps 705 mmHg 72%
13:00 +8°C° 0.1 mm 4 mps 705 mmHg 70%
14:00 +8°C° 0.1 mm 4 mps 705 mmHg 68%
15:00 +8°C° 0 mm 4 mps 705 mmHg 68%
16:00 +10°C° 0 mm 4 mps 705 mmHg 68%
17:00 +10°C° 0 mm 4 mps 705 mmHg 67%
18:00 +7°C° 0 mm 4 mps 705 mmHg 74%
19:00 +7°C° 0 mm 3 mps 705 mmHg 80%
20:00 +5°C° 0 mm 3 mps 705 mmHg 87%
21:00 +5°C° 0 mm 3 mps 705 mmHg 88%
22:00 +5°C° 0 mm 3 mps 705 mmHg 89%
23:00 +5°C° 0 mm 3 mps 705 mmHg 91%

22 April, Thursday

Time Temperature Precipitation Wind Pressure Humidity
00:00 +5°C° 0 mm 3 mps 705 mmHg 91%
01:00 +5°C° 0 mm 3 mps 705 mmHg 92%
02:00 +4°C° 0 mm 3 mps 705 mmHg 92%
03:00 +5°C° 0 mm 2 mps 705 mmHg 93%
04:00 +5°C° 0 mm 2 mps 705 mmHg 94%
05:00 +5°C° 0 mm 2 mps 705 mmHg 95%
06:00 +6°C° 0.1 mm 2 mps 705 mmHg 94%
07:00 +5°C° 0.1 mm 3 mps 705 mmHg 92%
08:00 +7°C° 0.1 mm 3 mps 705 mmHg 91%
09:00 +7°C° 0.4 mm 3 mps 705 mmHg 89%
10:00 +7°C° 0.4 mm 3 mps 706 mmHg 88%
11:00 +8°C° 0.4 mm 3 mps 706 mmHg 87%
12:00 +8°C° 0.2 mm 3 mps 705 mmHg 85%
13:00 +8°C° 0.2 mm 3 mps 705 mmHg 83%
14:00 +8°C° 0.2 mm 4 mps 705 mmHg 81%
15:00 +8°C° 0.1 mm 4 mps 705 mmHg 82%
16:00 +8°C° 0.1 mm 4 mps 704 mmHg 82%
17:00 +8°C° 0.1 mm 4 mps 704 mmHg 82%
18:00 +8°C° 1.1 mm 3 mps 705 mmHg 87%
19:00 +6°C° 1.1 mm 2 mps 705 mmHg 92%
20:00 +5°C° 1.1 mm 1 mps 705 mmHg 97%
21:00 +5°C° 2.5 mm 1 mps 705 mmHg 97%
22:00 +4°C° 2.5 mm 1 mps 705 mmHg 98%
23:00 +2°C° 2.5 mm 2 mps 705 mmHg 98%

23 April, Friday

Time Temperature Precipitation Wind Pressure Humidity
00:00 +3°C° 2.3 mm 1 mps 705 mmHg 98%
01:00 +3°C° 2.3 mm 1 mps 705 mmHg 98%
02:00 +2°C° 2.3 mm 1 mps 706 mmHg 99%
03:00 +2°C° 0 mm 1 mps 706 mmHg 98%
04:00 +1°C° 0 mm 1 mps 706 mmHg 97%
05:00 +1°C° 0 mm 1 mps 706 mmHg 96%
06:00 +2°C° 0 mm 1 mps 706 mmHg 92%
07:00 +2°C° 0 mm 2 mps 707 mmHg 88%
08:00 +3°C° 0 mm 2 mps 707 mmHg 84%
09:00 +2°C° 0 mm 3 mps 708 mmHg 83%
10:00 +2°C° 0 mm 3 mps 708 mmHg 82%
11:00 +3°C° 0 mm 3 mps 708 mmHg 81%
12:00 +3°C° 0 mm 3 mps 708 mmHg 78%
13:00 +4°C° 0 mm 3 mps 708 mmHg 74%
14:00 +5°C° 0 mm 3 mps 708 mmHg 71%
15:00 +4°C° 0 mm 3 mps 708 mmHg 71%
16:00 +4°C° 0 mm 3 mps 708 mmHg 72%
17:00 +4°C° 0 mm 3 mps 708 mmHg 73%
18:00 +4°C° 0 mm 2 mps 709 mmHg 79%
19:00 +3°C° 0 mm 1 mps 709 mmHg 86%
20:00 +2°C° 0 mm 1 mps 709 mmHg 93%
21:00 +1°C° 0 mm 1 mps 709 mmHg 93%
22:00 +1°C° 0 mm 1 mps 709 mmHg 94%
23:00 +1°C° 0 mm 1 mps 709 mmHg 94%

24 April, Saturday

Time Temperature Precipitation Wind Pressure Humidity
00:00 0°C° 0 mm 1 mps 709 mmHg 94%
01:00 -1°C° 0 mm 1 mps 709 mmHg 95%
02:00 -1°C° 0 mm 1 mps 708 mmHg 95%
03:00 -1°C° 0 mm 1 mps 708 mmHg 95%
04:00 -2°C° 0 mm 1 mps 708 mmHg 95%
05:00 -2°C° 0 mm 1 mps 708 mmHg 95%
06:00 -2°C° 0 mm 2 mps 708 mmHg 87%
07:00 +1°C° 0 mm 2 mps 708 mmHg 79%
08:00 +4°C° 0 mm 2 mps 708 mmHg 71%
09:00 +4°C° 0 mm 3 mps 708 mmHg 68%
10:00 +5°C° 0 mm 4 mps 708 mmHg 65%
11:00 +6°C° 0 mm 5 mps 707 mmHg 61%
12:00 +5°C° 0.4 mm 4 mps 707 mmHg 68%
13:00 +5°C° 0.4 mm 4 mps 707 mmHg 75%
14:00 +4°C° 0.4 mm 4 mps 707 mmHg 82%
15:00 +4°C° 0.8 mm 3 mps 707 mmHg 85%
16:00 +3°C° 0.8 mm 3 mps 707 mmHg 89%
17:00 +3°C° 0.8 mm 2 mps 707 mmHg 92%
18:00 +2°C° 0.4 mm 2 mps 707 mmHg 91%
19:00 +3°C° 0.4 mm 1 mps 708 mmHg 91%
20:00 +2°C° 0.4 mm 1 mps 708 mmHg 90%
21:00 +2°C° 0.1 mm 1 mps 708 mmHg 91%
22:00 +1°C° 0.1 mm 1 mps 708 mmHg 93%
23:00 +1°C° 0.1 mm 1 mps 709 mmHg 94%
Show more

We Need Your Consent

Meteoprog and our Service Providers may store and access personal data such as cookies, device identifiers or other similar technologies on your device and process such data to personalise content and ads, as well as provide social media features and to analyse the traffic.

  • Store and/or access information on your device

    Cookies, device identifiers or other information can be stored or accessed on your device for the purposes indicated above.

  • Personalised ads and content, ad and content measurement, audience insights, and products development

    Ads and content can be personalised based on a profile. More data can be added to better personalise ads and content. Ad and content performance can be measured. Insights about the audience who saw the ads and content can be derived. Such data can be used to develop or improve user’s experience, systems and software.

By clicking ‘I Agree’ you will allow the use of indicated cookies, device identifiers, web beacons or other similar technologies. Your settings can be changed in the browser on your device.

For certain purposes, legitimate interests may be relied on, rather than consent. You can read more about this in our Privacy and Cookie Policy.